Regional Weather Roundup
Issued by NWS

Home | Current Version | Previous Version | Graphics & Text | Print | Product List | Glossary Off
Versions: 1 2 3 4 5 6 7 8 9 10 11 12 13 14 15 16 17 18 19 20 21 22 23 24 25 26 27 28 29 30 31 32 33 34 35 36 37 38 39 40 41 42 43 44 45 46 47 48 49 50

000
ASUS43 KTOP 201308
RWRKS

WEATHER ROUNDUP FOR KANSAS
NATIONAL WEATHER SERVICE GOODLAND KS
800 AM CDT SUN MAY 20 2018

NOTE:  "FAIR" INDICATES FEW OR NO CLOUDS BELOW 12,000 FEET WITH NO
SIGNIFICANT WEATHER AND/OR OBSTRUCTIONS TO VISIBILITY.

KSZ001>006-013>018-027>032-041>047-201400-
NORTHWEST KANSAS

CITY           SKY/WX    TMP DP  RH WIND       PRES   REMARKS
GOODLAND       MOSUNNY   46  42  86 NW13      30.21S
HAYS           CLOUDY    53  49  86 N13G20    30.14R
HILL CITY      CLOUDY    53  48  83 NW13      30.16R
RUSSELL        CLOUDY    53  52  96 N7        30.12R
$$

KSZ061>065-074>080-084>089-201400-
SOUTHWEST KANSAS

CITY           SKY/WX    TMP DP  RH WIND       PRES   REMARKS
DODGE CITY     PTSUNNY   50  44  80 N21G30    30.13R
ELKHART        CLOUDY    50  45  81 N21G26    30.19F
GARDEN CITY    CLOUDY    48  44  86 N15G24    30.17R
GREAT BEND     CLOUDY    53  50  89 N9        30.13R
LIBERAL        PTSUNNY   50  43  77 NW14      30.18R
PRATT          CLOUDY    53  48  83 N17       30.11F
$$

KSZ066>073-081>083-090>101-201400-
SOUTHEAST KANSAS

CITY           SKY/WX    TMP DP  RH WIND       PRES   REMARKS
CHANUTE        LGT RAIN  65  65 100 E6        30.05F
COFFEYVILLE    CLOUDY    66  64  93 NE9       30.00F
HUTCHINSON     CLOUDY    56  53  90 N15       30.07F
MEDICINE LODGE   N/A     55  49  80 N10         N/A
NEWTON         CLOUDY    57  55  93 N10       30.09R
PARSONS        LGT RAIN  65  65 100 CALM      30.04F
WICHITA INTL   LGT RAIN  59  58  96 N13       30.07S FOG
WICHITA JABRA  CLOUDY    58  58 100 NW8       30.07R FOG
WICHITA MCCONL CLOUDY    59  56  89 N13G18    30.06
WINFIELD       CLOUDY    60  60 100 N12       30.05R FOG
$$

KSZ007>012-019>026-033>040-048>060-102>105-201400-
NORTHEAST KANSAS

CITY           SKY/WX    TMP DP  RH WIND       PRES   REMARKS
CONCORDIA      CLOUDY    54  54 100 NW9       30.09F FOG
EMPORIA        CLOUDY    61  59  93 N3        30.05S FOG
LAWRENCE       LGT RAIN  65  65 100 NW5       30.07R FOG
MANHATTAN      CLOUDY    60  56  86 N3        30.06F FOG
MARYSVILLE     CLOUDY    59  55  88 NE5       30.08R FOG
OLATHE IND     LGT RAIN  65  63  93 SE6       30.09R
OLATHE EXE     LGT RAIN  63  63 100 S9        30.08
SALINA         CLOUDY    58  54  86 N10       30.09S
TOPEKA BILLARD CLOUDY    64  62  93 N3        30.05R
TOPEKA FORBES  CLOUDY    64  62  93 NE3       30.05R
$$




USA.gov is the U.S. government's official web portal to all federal, state and local government web resources and services.